Location: Unspecified
(0.0000°N, 0.0000°E)
Time: 15:44:27
(UTC+00:00)

Hubble Space Telescope - Visible Passes

Search period start: 30 November 2021 00:00
Search period end: 10 December 2021 00:00
Orbit: 534 x 538 km, 28.5° (Epoch: 29 November)

Date Brightness Start Highest point End Pass type
(mag) Time Alt. Az. Time Alt. Az. Time Alt. Az.
02 Dec 3.3 19:09:20 10° SSE 19:10:05 10° SSE 19:10:50 10° SE visible
03 Dec 3.0 18:56:47 10° S 18:59:01 14° SSE 19:00:40 12° SE visible
04 Dec 2.7 18:44:56 10° SSW 18:47:55 19° SSE 18:50:13 13° ESE visible
04 Dec 3.8 20:24:57 10° WSW 20:25:31 14° WSW 20:25:31 14° WSW visible
05 Dec 2.3 18:33:20 10° SSW 18:36:48 25° SSE 18:39:48 12° E visible
05 Dec 3.4 20:13:56 10° WSW 20:15:06 18° W 20:15:06 18° W visible
06 Dec 1.8 18:21:51 10° SW 18:25:40 35° SSE 18:29:24 10° E visible
06 Dec 3.1 20:03:01 10° W 20:04:42 21° W 20:04:42 21° W visible
07 Dec 1.3 18:10:30 10° SW 18:14:31 49° SSE 18:18:31 10° ENE visible
07 Dec 2.9 19:52:13 10° W 19:54:20 21° WNW 19:54:20 21° WNW visible
08 Dec 3.3 04:26:51 10° NNE 04:27:39 10° NNE 04:28:27 10° NE visible
08 Dec 2.9 19:41:37 10° WNW 19:43:58 18° NW 19:43:58 18° NW visible
09 Dec 3.0 04:16:04 14° NNE 04:16:34 14° NNE 04:18:48 10° ENE visible
09 Dec 3.1 19:31:19 10° WNW 19:33:23 13° NNW 19:33:35 13° NNW visible
